#timestamp,LO_Frequency,Hit,StdDev 
1504054815.3,286047001.6,N,1.6
1504054835.1,286047001.7,N,1.6
1504054855.9,286047001.8,N,1.6
1504054875.7,286047001.5,N,1.6
1504054895.5,286047002.5,N,1.6
1504054915.4,286047002.2,N,1.6
1504054935.2,286047001.7,N,1.6
1504054955.0,286047001.6,N,1.4
1504054955.9,286047001.6,N,1.2
1504054975.8,286047004.2,Y,0.0
1504054995.6,286047001.0,P,0.8
1504055015.4,286047000.6,N,0.9
1504055035.3,286047000.8,N,0.8
1504055055.1,286046998.3,N,1.4
1504055075.8,286046998.1,N,1.6
1504055095.7,286046998.7,N,1.6
1504055115.5,286046997.2,N,1.7
1504055135.3,286046996.8,N,1.9
1504055155.2,286046997.6,N,1.8
1504055175.0,286046997.1,N,1.9
1504055175.9,286046997.1,N,1.9
1504055195.8,286046997.8,N,1.8
1504055215.6,286046998.0,N,1.7
1504055235.4,286046997.4,N,1.7
1504055255.3,286046996.8,N,1.7
1504055275.1,286046997.2,N,1.7
1504055276.0,286046997.2,N,1.7
1504055295.8,286046997.3,N,1.6
1504055315.7,286046996.9,N,1.6
1504055335.5,286046997.8,N,1.6
1504055355.3,286046997.7,N,1.6
1504055375.2,286046997.9,N,1.5
1504055395.9,286046997.5,N,1.5
1504055415.7,286046995.0,Y,0.0
1504055435.6,286046996.6,P,0.8
1504055455.4,286046997.0,P,0.7
1504055475.2,286046997.2,P,0.6
1504055495.1,286046994.9,Y,0.0
1504055496.0,286046994.9,P,1.2
1504055515.8,286046999.3,N,1.8
1504055535.6,286046999.0,N,1.8
1504055555.5,286047001.0,N,2.1
1504055575.3,286046998.9,N,1.9
1504055595.1,286046999.6,N,1.8
1504055615.9,286046999.2,N,1.7
1504055635.7,286682705.0,Y,0.0
1504055655.5,286046998.5,P,0.1
1504055675.4,286047001.1,P,1.2
1504055695.2,286047000.9,N,1.2
1504055715.1,286046998.2,N,1.3
1504055716.0,286046998.2,N,1.2
1504055735.8,286047001.1,N,1.3
1504055755.6,286047001.0,N,1.3
1504055775.5,286047001.1,N,1.3
1504055795.3,286046998.1,N,1.4
1504055815.1,286047000.7,N,1.3
1504055835.9,286046998.1,N,1.4
1504055855.7,286047001.0,N,1.4
1504055875.5,286047000.8,N,1.3
1504055895.4,286046999.3,N,1.3
1504055915.2,286046999.2,N,1.3
1504055935.0,286046999.6,N,1.2
1504055935.9,286046999.6,N,1.2
1504055955.8,286046997.8,N,1.2
1504055975.6,286046997.3,N,1.3
1504055995.4,286046996.9,N,1.4
1504056015.3,286046999.4,N,1.4
1504056035.1,286046996.6,N,1.4
1504056036.0,286046996.6,N,1.5
1504056055.8,286046997.5,N,1.5
1504056075.7,286046998.0,N,1.5
1504056095.5,286046995.0,Y,0.0
1504056115.3,286046997.5,P,0.8
1504056135.2,286046996.6,P,1.0
1504056155.0,286046998.9,N,1.0
1504056155.9,286046998.9,N,1.0
1504056175.7,286046999.2,N,1.0
1504056195.6,286046999.1,N,0.9
1504056215.4,286046999.4,N,0.9
1504056235.2,286046998.9,N,0.9
1504056255.1,286046998.6,N,0.8
1504056256.0,286046998.6,N,0.8
1504056275.8,286046999.6,N,0.8
1504056295.6,286046999.5,N,0.8
1504056315.5,286046996.9,Y,0.0
1504056335.3,286046999.3,P,0.3
1504056355.2,286046998.8,P,0.2
1504056375.9,286046999.2,P,0.2
1504056395.7,286046998.6,Y,0.0
1504056415.6,286047000.3,P,0.6
1504056435.4,286047000.1,N,0.6
1504056455.2,286046999.8,N,0.5
1504056475.1,286047001.0,N,0.6
1504056476.0,286047001.0,N,0.7
1504056495.8,286047001.2,N,0.7
1504056515.6,286047001.2,N,0.7
1504056535.5,286047000.6,N,0.7
1504056555.3,286046998.6,N,0.9
1504056575.1,286047000.7,N,0.8
1504056595.9,286047000.9,N,0.8
1504056615.7,286047000.4,N,0.8
1504056635.5,286046998.5,N,0.9
1504056655.4,286047001.0,N,0.9
1504056675.2,286047000.8,N,0.9
1504056695.0,286047001.0,N,0.9
1504056695.9,286047001.0,N,0.8
1504056715.8,286046998.5,N,0.9
1504056735.6,286047000.5,N,0.9
1504056755.4,286046998.7,N,0.9
1504056775.3,286046999.0,N,1.0
1504056795.1,286046998.2,N,1.0
1504056815.8,286046999.5,N,1.0
1504056835.7,286046999.4,N,1.0
1504056855.5,286046997.1,N,1.1
1504056875.3,286046999.5,N,1.1
1504056895.2,286046999.5,N,1.1
1504056915.0,286046996.9,N,1.2
1504056915.9,286046996.9,N,1.3
1504056935.7,286046997.2,N,1.4
1504056955.6,286046996.9,N,1.4
1504056975.4,286046996.9,N,1.5
1504056995.2,286046999.4,N,1.5
1504057015.1,286046997.8,N,1.5
1504057016.0,286046997.8,N,1.5
1504057035.8,286046997.1,N,1.5
1504057055.7,286046999.2,N,1.4
1504057075.5,286046999.4,N,1.4
1504057095.3,286046999.3,N,1.4
1504057115.2,286046998.7,N,1.4
1504057135.9,286046998.9,N,1.3
1504057155.7,286046999.0,N,1.3
1504057175.6,286046998.1,N,1.3
1504057195.4,286046998.3,N,1.2
1504057215.2,286046998.6,N,1.2
1504057235.1,286047000.7,N,1.1
1504057236.0,286047000.7,N,1.1
1504057255.8,286047000.4,N,1.2
1504057275.6,286047000.9,N,1.2
1504057295.5,286047000.4,N,1.2
1504057315.3,286047000.7,N,1.3
1504057335.1,286047000.5,N,1.3
1504057355.9,286047002.8,N,1.5
1504057375.7,286047000.6,N,1.5
1504057395.5,286047001.1,N,1.5
1504057415.4,286047001.0,N,1.6
1504057435.2,286047000.3,N,1.6
1504057455.0,286047000.5,N,1.5
1504057455.9,286047000.5,N,1.5
1504057475.8,286047000.3,N,1.4
1504057495.6,286046999.7,N,1.3
1504057515.4,286047002.6,N,1.3
1504057535.3,286046999.8,N,1.3
1504057555.1,286047001.6,N,1.3
1504057575.8,286047000.1,N,1.2
1504057595.7,286047000.0,N,1.1
1504057615.5,286047002.6,N,1.2
1504057635.3,286047002.4,N,1.2
1504057655.2,286047002.6,N,1.3
1504057675.0,286047001.3,N,1.2
1504057675.9,286047001.3,N,1.2
1504057695.8,286047001.5,N,1.2
1504057715.6,286047002.4,N,1.1
1504057735.4,286047000.5,N,1.0
1504057755.3,286047000.9,N,0.9
1504057775.1,286046999.7,N,0.9
1504057776.0,286046999.7,N,0.9
1504057795.8,286046999.9,N,1.0
1504057815.7,286046999.8,N,1.0
1504057835.5,286047002.3,N,1.0
1504057855.3,286047002.3,N,1.0
1504057875.2,286047002.7,N,1.1
1504057895.9,286047002.5,N,1.1
1504057915.7,286047002.6,N,1.1
1504057935.6,286047002.0,N,1.1
1504057955.4,286047002.7,N,1.1
1504057975.2,286047002.0,N,1.1
1504057995.1,286047002.6,N,1.1
1504057996.0,286047002.6,N,1.1
1504058015.8,286047001.8,N,1.1
1504058035.6,286047002.2,N,1.1
1504058055.5,286047002.1,N,1.1
1504058075.3,286047001.5,N,1.0
1504058095.1,286047003.9,Y,0.0
1504058115.9,286046999.9,P,0.9
1504058135.7,286047002.4,N,1.0
1504058155.5,286047001.0,N,0.9
1504058175.4,286047000.1,N,0.9
1504058195.2,286046999.9,N,0.9
1504058215.0,286047000.0,N,0.9
1504058215.9,286047000.0,N,0.9
1504058235.8,286047000.0,N,0.9
1504058255.6,286047000.2,N,0.8
1504058275.4,286047002.4,N,1.0
1504058295.3,286047000.6,N,0.9
1504058315.1,286047002.4,N,1.0
1504058335.8,286047002.6,N,1.1
1504058355.7,286047000.2,N,1.0
1504058375.5,286047002.4,N,1.1
1504058395.3,286047002.8,N,1.1
